Location: Newark
(42.9277°N, 71.8621°W)
Time: 19:55:22
(UTC+00:00)

Transit 4A - Pass Details

Date: 13 May 2021
Orbit: 872 x 973 km, 66.8° (Epoch: 15 June)

Event Time Altitude Azimuth Distance (km) Brightness Sun altitude
Rises 08:00:31 0° 327° (NNW) 3,488 11.0 -13.8°
Reaches altitude 10° 08:03:01 10° 326° (NW) 2,538 10.3 -13.4°
Maximum altitude 08:08:51 73° 243° (WSW) 911 7.7 -12.6°
Drops below altitude 10° 08:14:37 10° 159° (SSE) 2,514 10.0 -11.8°
Sets 08:17:06 0° 157° (SSE) 3,453 10.7 -11.5°
